GEFSSE_con_prob3kmehi_246.txt.gz
EHI
0 0 0 0 0 0 0 0 0 0 0 0 0 0 0 0 0 1 1 1 1 3 3 2 2 3 5 5 3 2 1 0 0 0 0 1 0 1 1 1 0 0 0
0 0 0 0 0 0 0 0 0 0 0 0 0 0 0 0 0 0 0 0 1 3 3 1 1 2 3 3 2 1 0 0 0 0 0 1 0 0 0 0 0 0 0
0 0 0 0 0 0 0 0 0 0 0 0 0 0 0 0 0 0 0 0 1 2 2 1 0 0 1 1 1 0 0 0 0 0 0 0 0 0 0 0 0 1 1
0 0 0 0 0 0 0 0 0 0 0 0 0 0 0 0 0 0 0 0 0 1 1 0 0 0 0 0 0 1 1 0 0 0 0 0 0 0 0 0 0 0 0
0 0 1 1 1 0 0 0 0 0 0 0 0 0 0 0 0 0 0 0 0 0 0 0 0 0 0 0 1 2 1 0 0 0 0 0 0 0 0 0 0 0 0
0 0 1 2 1 0 0 0 0 0 0 0 0 0 0 0 0 0 0 1 0 0 0 0 0 0 0 0 1 1 1 0 0 0 0 0 0 0 0 0 0 0 0
0 0 1 2 1 0 0 0 0 0 0 0 0 0 0 0 0 0 0 0 0 0 0 0 0 0 0 0 0 0 0 0 0 0 0 0 1 2 1 0 0 0 0
0 0 1 2 1 0 0 0 0 0 0 0 0 0 0 1 1 1 1 1 1 1 1 1 0 1 2 2 2 1 0 0 0 0 0 0 1 3 1 0 0 0 0
0 0 0 0 0 0 0 0 0 0 0 0 0 0 1 2 2 2 3 3 3 3 3 3 3 5 7 6 5 3 1 0 0 0 0 0 2 4 2 0 0 0 0
0 0 0 0 0 0 0 0 0 0 0 0 0 0 1 2 2 2 3 5 6 6 6 6 8 11 12 9 6 4 1 0 0 0 0 1 4 6 5 2 1 1 0
0 0 0 0 0 0 0 0 0 0 0 0 0 0 1 1 1 1 2 4 5 6 6 8 12 12 11 8 5 4 2 0 0 0 0 3 6 9 9 6 3 2 1
0 0 0 0 0 0 0 0 0 0 0 0 0 0 0 0 0 0 0 2 3 4 5 7 10 9 7 5 4 4 2 1 0 0 2 6 10 12 12 9 5 3 1
0 0 1 1 1 0 0 1 1 1 0 0 0 0 0 0 0 0 0 1 2 3 4 5 5 5 4 3 3 3 2 1 0 0 3 9 14 15 14 10 6 3 1
1 1 2 2 2 1 1 1 2 1 1 1 1 0 0 0 0 0 1 2 3 3 3 3 3 3 3 3 3 3 3 1 1 0 3 9 15 17 16 13 9 5 2
2 2 3 3 3 3 1 1 1 1 1 2 2 1 1 0 0 0 1 2 3 3 3 3 3 3 3 3 3 3 3 3 2 1 2 7 13 16 18 17 13 8 5
4 4 4 4 4 3 1 1 1 1 2 3 4 2 1 0 0 1 2 3 3 3 3 3 3 3 2 3 3 3 3 3 3 2 2 4 9 14 16 17 15 12 10
8 8 6 5 4 3 2 1 2 2 3 3 3 2 1 0 1 2 3 3 3 3 2 2 2 1 1 2 2 2 2 2 3 3 2 2 4 8 12 15 15 14 13
14 11 8 7 6 5 4 3 3 4 4 3 2 1 1 1 2 3 3 3 3 3 2 2 2 1 2 2 1 1 2 3 3 3 2 1 0 2 6 10 13 13 12
19 15 11 9 8 8 6 4 4 5 5 4 3 3 4 4 3 3 3 3 4 3 3 3 3 3 2 1 0 1 2 2 2 2 1 0 0 0 2 4 7 9 8
24 20 15 12 10 9 7 5 4 4 4 5 5 6 7 6 4 4 4 4 4 3 3 3 3 3 2 1 0 0 1 1 1 1 0 0 0 0 0 1 2 3 4
29 25 22 18 14 12 9 7 5 4 5 6 7 8 8 7 5 4 4 4 4 3 2 3 3 2 1 0 0 0 0 0 0 0 0 0 0 0 0 0 0 0 1
35 32 29 27 23 18 13 9 7 6 6 6 7 8 9 8 7 6 5 4 4 3 2 2 3 1 0 0 0 0 0 0 0 0 0 0 0 0 0 0 0 0 0
39 37 36 35 31 25 19 15 12 10 7 7 8 8 8 8 9 8 7 6 6 3 2 2 2 1 0 0 0 0 0 0 0 0 0 0 0 0 0 0 0 0 0
39 40 41 40 35 30 26 23 20 15 10 9 9 9 8 8 10 11 10 9 8 5 3 3 2 0 0 0 0 0 0 0 0 0 0 0 0 0 0 0 0 0 0
41 44 46 45 38 32 30 29 27 20 14 12 11 9 8 8 10 12 12 10 9 7 6 5 2 1 0 0 0 0 0 0 0 0 0 0 0 0 0 0 0 0 0
45 47 50 49 42 33 30 32 30 25 18 13 11 8 7 8 10 13 13 11 9 9 8 5 3 1 0 0 0 0 0 0 0 0 0 0 0 0 0 0 0 0 0

GEFSSE_con_prob3kmehi_252.txt.gz
EHI
0 0 1 0 0 0 0 0 0 0 0 0 0 0 0 0 0 0 0 0 0 0 1 1 0 0 0 0 0 0 0 0 0 0 0 1 2 3 1 0 0 0 0
0 0 1 1 0 0 0 0 0 0 0 0 0 0 0 0 0 0 0 0 0 0 1 1 0 0 0 0 0 0 0 0 0 0 0 0 1 1 0 0 0 0 0
0 0 1 2 1 0 0 0 0 0 0 0 0 0 0 0 0 0 0 0 0 0 1 1 0 0 0 0 0 0 0 0 0 0 0 0 0 0 0 0 0 0 0
0 0 1 2 2 1 0 0 0 0 0 0 0 0 0 0 0 0 0 0 0 0 0 0 0 0 0 0 0 0 0 0 0 0 0 0 0 0 0 0 0 0 0
0 0 1 2 3 2 1 0 0 0 0 0 0 0 0 0 0 0 0 0 0 0 0 0 0 0 0 0 0 0 0 0 0 0 0 0 0 0 0 0 0 0 0
0 0 1 2 3 3 2 1 0 0 0 0 0 0 0 0 0 0 0 0 1 1 1 1 0 0 0 0 0 0 0 0 0 0 0 0 0 0 0 0 0 0 0
0 0 1 2 3 3 3 2 1 0 0 0 0 0 0 1 1 1 1 1 2 2 2 1 1 1 1 1 1 0 0 0 0 0 0 0 0 0 0 0 0 0 0
0 0 1 2 2 2 2 2 1 0 0 0 0 0 0 1 1 1 1 1 2 2 1 1 2 2 3 2 1 0 0 0 0 0 0 0 0 0 0 0 0 0 0
0 0 0 1 1 0 1 1 0 0 0 0 0 0 0 1 1 0 0 1 1 1 0 0 1 3 4 3 2 1 1 1 0 0 0 0 0 0 0 0 0 0 0
0 0 0 0 0 0 0 0 0 0 0 0 0 0 0 0 0 0 0 0 0 0 0 0 0 1 3 3 3 2 2 1 0 0 0 0 0 0 0 0 0 0 0
0 0 0 0 0 0 0 0 0 0 0 0 0 0 0 0 0 0 0 0 0 0 0 0 0 0 1 3 3 3 2 1 0 0 0 0 0 0 0 0 0 0 0
0 0 0 0 0 0 0 0 0 0 0 0 0 0 0 0 0 0 0 0 0 0 0 0 1 1 1 3 3 3 2 2 1 0 0 0 0 0 0 0 0 0 0
0 0 0 0 0 0 0 0 0 0 0 0 0 0 0 0 0 0 0 0 0 0 0 1 2 2 3 3 3 2 2 2 1 0 0 0 1 1 0 0 0 0 0
0 0 0 0 0 0 0 0 0 0 0 0 0 0 0 0 0 0 0 0 0 0 0 1 3 3 3 3 3 2 1 1 0 0 0 0 1 1 0 0 0 1 1
0 0 0 0 0 0 0 0 0 0 0 0 0 0 0 0 0 0 0 0 0 0 1 2 3 3 3 3 3 3 2 1 1 1 0 0 0 0 0 1 1 1 2
0 0 0 0 0 0 0 0 0 0 0 0 0 0 0 0 0 0 0 0 0 1 2 3 3 1 1 2 3 2 2 2 2 2 1 1 0 0 0 0 1 1 1
0 0 0 0 0 0 0 0 0 0 0 0 0 0 0 0 1 1 0 0 0 1 3 3 3 1 1 1 1 1 1 1 1 2 2 2 1 0 0 0 0 1 1
0 0 0 0 0 0 0 0 0 0 0 0 0 0 0 0 1 1 0 0 1 2 3 3 3 2 1 0 0 0 0 0 0 1 2 2 2 1 0 0 0 1 1
0 0 0 0 0 0 0 0 1 0 0 0 0 0 0 0 1 1 0 0 1 3 3 3 2 1 0 0 0 0 0 0 0 0 1 1 2 1 0 0 0 0 1
1 0 0 0 0 0 1 1 1 0 0 1 1 1 1 1 2 2 1 1 2 3 3 1 1 0 0 0 0 0 0 0 0 0 0 0 1 1 0 0 0 0 0
2 1 1 1 1 2 3 3 2 1 1 2 2 2 2 3 3 3 3 3 3 3 3 1 1 0 0 0 0 0 0 0 0 0 0 0 0 0 0 0 0 0 0
4 4 4 4 4 4 4 4 4 4 3 4 4 3 3 3 3 3 3 3 3 3 3 2 1 0 0 0 0 0 0 0 0 0 0 0 0 0 0 0 0 0 0
6 6 6 6 6 5 5 6 8 8 8 7 5 4 3 3 3 3 3 3 3 3 2 1 1 0 0 0 0 0 0 0 0 0 0 0 0 0 0 0 0 0 0
11 8 7 7 6 6 9 12 13 12 10 8 6 4 3 2 1 2 3 3 3 2 1 0 0 0 0 0 0 0 0 0 0 0 0 0 0 0 0 0 0 0 0
14 12 9 8 7 9 15 20 18 15 12 8 5 3 2 2 1 1 3 3 3 2 0 0 0 0 1 0 0 0 0 0 0 0 0 0 0 0 0 0 0 0 0
16 14 11 8 8 11 18 23 21 17 13 9 5 2 1 2 1 1 2 3 3 2 1 0 0 0 1 0 0 0 0 0 0 0 0 0 0 0 0 0 0 0 0

GEFSSE_con_prob3kmehi_258.txt.gz
EHI
0 0 0 0 0 0 0 0 0 1 0 0 0 0 0 0 0 0 0 0 0 0 0 0 0 1 1 1 1 2 2 1 2 2 1 1 3 4 3 2 1 0 0
0 0 0 0 0 0 0 0 0 1 0 0 0 0 0 0 0 0 0 0 0 0 0 0 0 0 0 0 0 1 1 0 1 1 0 0 1 2 2 2 1 0 0
0 0 0 0 0 0 0 0 0 0 0 0 0 0 0 0 0 0 0 0 0 0 0 0 0 0 0 0 0 0 0 0 0 0 0 0 0 0 1 1 1 0 0
0 0 0 0 0 0 0 0 0 0 0 0 0 0 0 0 0 0 0 0 0 0 0 0 0 0 0 0 0 0 0 0 0 0 0 0 0 0 0 0 0 0 0
0 0 0 0 0 0 0 0 0 0 0 0 0 0 0 0 0 0 0 0 0 0 0 0 0 0 0 0 0 0 0 0 0 0 0 0 0 0 0 0 0 0 0
0 0 0 0 0 0 0 0 0 0 0 0 0 0 0 0 0 0 0 0 0 0 0 0 0 0 0 0 0 0 0 0 0 0 0 0 0 0 0 0 0 0 0
0 0 0 0 0 0 0 0 0 0 0 0 0 0 0 0 0 0 0 0 1 1 1 1 1 1 1 1 0 0 0 0 0 0 0 0 0 0 0 0 0 0 0
0 0 0 0 0 0 0 1 1 0 0 0 0 0 1 1 0 0 0 1 2 2 3 3 3 3 2 2 1 1 0 0 0 0 0 0 0 0 0 0 0 0 0
0 0 0 0 0 1 1 2 2 1 1 1 2 2 2 1 0 0 1 2 3 3 4 5 4 3 3 3 3 2 2 1 0 0 0 0 0 0 0 0 0 0 0
0 0 0 0 1 1 2 2 3 3 2 3 3 3 2 1 1 1 1 3 3 3 4 4 4 3 3 3 3 3 3 1 0 0 0 0 0 0 0 0 0 0 0
0 0 0 0 1 1 1 1 2 3 3 3 3 3 2 1 1 2 2 3 3 3 3 4 4 3 3 3 3 3 3 1 0 0 0 0 0 0 0 0 0 0 0
0 0 0 0 1 1 0 0 1 1 2 2 2 2 1 1 1 1 1 2 2 2 2 3 4 4 3 3 3 3 3 2 1 0 1 1 1 0 0 0 0 0 0
0 0 0 0 1 0 0 0 0 0 1 1 0 1 1 0 0 0 0 1 1 1 0 1 2 3 3 3 3 3 3 3 2 1 1 2 2 1 0 0 0 0 0
0 0 0 0 0 0 0 0 0 0 0 1 1 0 0 0 0 0 0 0 0 1 1 1 1 1 2 1 1 3 3 3 3 3 2 2 2 2 1 1 0 1 1
0 0 0 0 0 0 0 0 0 0 1 1 1 1 1 1 0 0 1 2 2 2 3 2 2 1 1 1 1 3 4 4 3 3 3 2 2 3 3 2 2 2 2
0 0 0 0 0 0 0 0 0 0 1 1 1 2 2 2 1 1 2 3 3 4 4 4 3 3 2 2 3 3 4 4 4 3 3 2 2 2 3 4 4 3 3
0 0 0 0 0 0 1 1 0 0 1 1 1 3 3 3 3 3 3 3 3 4 5 5 4 4 3 3 3 4 4 4 3 2 2 1 1 1 3 4 4 3 3
1 1 0 0 0 1 2 2 1 1 2 3 3 3 3 3 3 3 3 3 3 4 5 5 4 4 3 3 4 4 5 4 2 1 0 0 1 2 4 5 4 4 4
0 0 0 1 1 1 3 3 3 3 4 5 4 4 3 3 3 3 3 3 3 3 4 4 4 3 3 3 4 5 5 5 3 1 0 0 1 3 4 4 5 5 4
0 0 1 3 4 5 5 4 3 4 4 5 5 4 3 4 4 3 3 3 3 3 3 3 3 3 3 3 3 3 3 4 3 1 0 0 0 2 3 4 4 4 4
0 1 4 6 9 11 10 7 6 5 5 6 6 5 5 6 5 4 3 3 4 4 4 4 3 3 4 4 2 1 2 2 2 1 0 0 0 0 1 3 3 2 3
1 3 7 11 14 16 15 12 10 8 7 7 8 8 7 8 7 4 4 4 5 6 6 5 4 4 3 3 3 2 1 1 1 1 0 1 1 1 1 1 1 1 2
4 6 11 15 18 19 19 17 15 12 10 10 10 9 8 8 8 7 7 8 8 7 7 6 5 4 3 2 4 4 2 1 1 1 1 2 2 2 1 1 1 1 1
9 11 15 19 22 24 22 21 18 14 11 11 11 10 8 8 10 12 12 12 10 8 7 7 6 4 2 2 4 5 4 2 2 1 1 1 1 1 0 0 1 2 2
12 14 17 22 27 28 26 25 23 18 14 12 12 11 10 10 12 13 13 13 11 8 7 7 8 6 3 3 5 5 5 3 2 1 1 1 1 0 0 0 1 2 2
14 15 17 22 28 29 28 27 26 22 18 15 13 13 13 14 13 12 12 13 11 8 8 9 9 7 5 5 5 5 4 3 3 2 1 2 2 1 0 0 0 1 2

GEFSSE_con_prob3kmehi_264.txt.gz
EHI
0 1 2 1 0 0 0 0 0 0 0 0 0 1 2 2 1 1 2 2 3 2 1 0 0 0 0 1 2 3 3 3 3 2 3 3 3 2 2 2 1 1 1
0 1 1 1 0 0 0 0 0 0 0 0 0 0 1 1 0 0 1 1 2 1 0 0 0 0 0 0 1 2 2 2 3 3 3 3 2 2 2 2 1 1 1
0 0 0 0 0 0 0 0 0 0 0 0 0 0 0 0 0 0 0 0 0 0 0 0 0 0 0 0 1 2 1 1 3 3 2 1 1 2 2 2 2 1 0
0 0 0 0 0 0 0 0 0 0 0 0 0 0 0 0 0 0 0 0 0 0 0 0 0 0 0 0 1 1 1 1 3 2 1 0 0 1 1 1 1 0 0
1 1 0 0 0 0 0 0 0 0 0 0 0 0 0 1 0 0 0 0 0 0 1 0 0 0 0 0 0 0 0 1 2 2 1 0 0 0 0 0 0 0 0
3 1 0 0 0 0 0 0 0 0 0 0 0 0 0 0 0 0 0 0 0 0 0 0 0 0 0 0 0 0 1 2 3 2 2 1 1 1 0 0 0 0 0
5 2 1 2 2 1 0 0 0 0 0 0 0 0 0 0 0 0 0 0 0 0 0 0 0 1 1 0 0 0 2 4 3 2 2 2 2 2 1 0 0 0 0
6 3 3 4 5 5 3 2 1 1 1 0 0 0 0 0 1 1 1 1 1 1 1 1 1 2 2 1 1 1 2 4 3 1 3 6 7 5 3 1 0 0 0
4 4 4 5 7 7 7 6 4 3 3 1 1 0 1 1 2 3 3 3 3 2 2 2 3 3 3 3 5 5 4 4 2 1 3 9 13 10 5 2 1 1 1
2 3 4 5 6 6 7 9 8 7 6 5 5 4 4 4 4 5 5 5 4 3 3 3 3 3 3 5 8 8 6 4 2 0 3 10 15 13 7 4 3 2 2
0 1 4 6 5 5 6 9 10 10 9 9 9 9 7 6 5 6 7 8 6 4 4 4 4 4 4 5 8 9 7 5 2 1 4 10 14 13 8 5 3 3 3
0 1 3 6 6 5 6 7 8 10 11 11 10 11 9 6 6 5 8 10 8 6 5 5 5 5 4 5 7 8 7 5 3 2 6 11 14 12 9 7 4 3 3
0 0 2 4 6 6 5 5 4 7 11 12 12 12 9 6 6 5 7 9 8 6 6 6 6 5 5 5 7 7 6 4 4 4 7 12 14 12 10 8 6 4 3
1 2 3 5 6 6 5 4 2 4 7 11 15 14 9 6 6 6 7 7 7 7 8 8 6 5 6 7 7 7 6 5 5 6 9 12 14 12 11 10 8 6 4
2 3 6 8 8 7 5 3 2 3 6 10 14 15 10 7 7 8 10 9 7 7 8 8 7 6 6 7 8 8 9 8 7 7 9 12 13 12 13 13 11 8 7
2 4 7 11 13 11 6 3 3 4 7 10 15 16 14 10 9 10 11 10 8 7 8 8 7 7 7 7 7 9 10 9 7 6 7 8 10 12 13 15 13 11 10
4 7 8 11 16 16 10 6 5 6 9 12 16 19 18 14 12 12 12 11 9 8 9 9 8 7 6 6 7 8 7 7 6 5 4 5 7 10 13 15 14 13 12
10 12 10 9 15 17 15 10 8 9 12 14 16 20 21 18 15 14 16 15 12 10 10 9 8 6 6 6 6 6 5 5 5 4 3 4 6 9 12 14 14 12 11
19 19 14 11 14 18 18 14 11 11 14 16 18 22 23 20 17 18 21 20 14 10 9 9 8 7 6 5 4 4 5 5 4 3 2 3 6 10 12 12 12 11 9
28 26 21 18 18 19 20 18 15 13 15 17 20 23 23 20 18 20 23 23 16 11 11 10 9 8 7 5 3 3 5 6 6 5 4 4 5 8 10 11 10 9 8
36 35 31 27 25 22 20 19 17 15 16 18 22 25 24 21 19 21 24 24 19 15 14 14 12 10 7 5 4 4 4 6 7 7 7 5 4 5 7 10 11 10 9
40 41 38 33 30 27 24 20 18 17 18 21 27 30 29 24 22 23 26 25 21 18 18 17 15 12 9 7 5 4 2 3 4 5 6 5 5 5 7 9 12 14 13
41 42 41 38 36 33 30 25 23 23 23 26 32 35 33 28 26 27 29 28 23 20 19 18 17 14 11 8 6 3 0 1 2 3 4 6 7 7 7 8 13 16 17
39 43 47 47 45 41 37 32 30 30 29 30 32 33 33 31 29 30 32 31 27 23 19 18 17 16 13 10 7 3 1 1 1 2 2 4 8 10 10 9 13 17 18
37 44 53 57 55 50 43 38 36 35 33 32 33 34 34 31 30 31 34 34 31 25 21 20 19 17 15 12 8 6 5 2 0 1 1 2 6 11 13 12 14 17 18
36 43 54 61 61 55 46 40 39 38 35 34 36 38 36 31 29 31 34 35 32 27 22 22 20 17 15 13 10 10 8 4 1 0 0 1 3 8 12 14 15 17 17

GEFSSE_con_prob3kmehi_270.txt.gz
EHI
0 1 2 2 1 0 1 2 2 3 3 3 3 3 3 3 2 1 0 0 0 0 0 0 0 0 0 0 0 0 0 0 1 2 2 1 1 1 0 0 0 1 2
0 1 1 1 0 0 0 1 1 2 2 3 3 3 3 3 3 1 0 0 0 0 0 0 0 0 0 0 0 0 0 0 1 2 1 0 0 0 0 0 0 1 2
0 0 0 0 0 0 0 0 0 1 1 1 2 2 2 3 3 2 1 0 0 0 0 0 0 0 0 0 0 0 0 0 1 2 1 0 0 0 0 0 1 1 1
0 0 0 0 0 0 0 0 0 0 0 0 1 1 1 1 3 3 1 1 0 0 0 0 0 0 0 0 0 0 0 0 1 1 0 0 0 0 0 0 1 2 1
0 0 0 0 0 0 0 0 0 0 0 0 0 0 0 1 2 3 3 2 1 1 0 0 0 0 0 0 0 0 0 0 0 0 0 0 0 0 0 0 1 2 1
0 0 0 1 0 0 0 0 0 0 0 0 0 0 0 1 2 3 3 3 2 2 1 0 0 0 0 0 0 0 0 0 0 0 0 0 0 0 1 1 1 1 1
0 0 1 1 1 0 0 0 0 0 0 1 1 1 1 1 3 4 4 3 2 1 1 0 0 0 1 1 0 0 0 0 0 0 0 0 0 1 3 2 1 0 1
0 0 1 2 2 1 0 0 0 1 1 1 2 2 1 2 3 5 6 5 3 2 1 0 0 1 2 3 2 1 0 0 0 0 0 0 0 2 4 5 2 0 1
0 0 0 1 2 1 1 1 1 1 1 1 1 1 2 3 4 6 8 8 6 5 3 1 0 1 2 3 3 2 0 0 0 0 0 0 0 1 5 6 4 1 1
0 0 0 0 0 0 0 1 1 1 1 1 2 2 4 4 4 5 7 10 10 9 6 3 1 0 1 1 2 1 0 0 0 0 0 0 0 2 6 6 3 2 2
0 0 0 0 0 0 0 1 1 1 1 2 3 4 4 3 2 2 5 10 13 12 9 6 3 2 0 0 0 1 0 0 0 0 0 1 2 5 7 6 4 3 3
0 0 0 0 0 0 0 0 1 0 0 1 2 2 2 1 0 0 3 8 11 11 9 8 6 4 2 0 0 0 0 1 1 0 1 3 4 5 7 8 7 4 3
1 0 0 0 0 1 1 1 1 1 1 0 0 0 0 0 0 0 1 4 6 7 7 6 6 6 3 1 0 0 1 2 2 1 1 3 5 6 7 9 8 5 3
2 1 0 0 1 2 2 2 2 2 2 1 0 1 1 1 1 1 1 2 3 4 4 4 5 5 3 1 1 1 2 3 3 2 1 3 5 6 7 8 7 5 4
3 2 1 0 1 3 4 3 2 2 3 2 1 2 2 2 2 3 3 3 3 4 3 3 4 4 3 2 2 3 3 3 3 2 1 3 5 6 7 7 6 4 5
3 3 1 0 2 5 6 4 2 3 4 4 4 4 4 4 3 3 3 3 3 3 3 3 3 3 3 3 3 3 3 3 3 2 1 2 4 6 7 7 6 5 5
4 3 3 3 5 8 9 7 4 4 5 5 5 6 7 5 4 4 3 2 2 2 2 3 3 3 3 3 3 3 3 3 2 1 1 2 3 5 7 7 6 6 6
5 5 6 7 8 10 10 9 7 6 5 4 5 7 8 7 6 5 4 2 2 2 3 3 3 3 3 3 3 3 3 2 1 0 0 1 1 2 4 5 5 7 7
9 7 7 7 8 8 9 9 8 6 5 4 5 7 9 8 8 7 5 3 3 3 3 3 3 3 3 3 3 3 2 1 0 0 0 0 0 0 1 2 4 6 7
13 11 8 7 7 8 8 8 7 6 6 5 6 8 10 10 10 8 7 5 4 3 3 3 3 3 3 3 3 2 1 0 0 0 0 0 0 0 0 0 1 3 4
17 15 10 8 9 9 9 9 8 8 7 6 7 10 12 12 12 11 9 6 4 3 3 3 3 3 3 3 2 1 0 0 0 0 0 0 0 0 0 0 0 0 1
21 19 16 13 12 12 12 11 11 10 8 7 8 10 12 12 13 14 12 8 5 3 3 3 3 3 3 2 1 0 0 0 0 0 0 0 0 0 0 0 0 0 0
24 23 20 17 15 15 15 15 13 12 11 10 9 9 11 12 12 14 14 11 7 4 3 3 3 3 2 1 0 0 0 0 0 0 0 0 0 0 0 0 0 0 0
25 25 23 21 19 19 19 18 17 15 14 12 10 8 9 11 13 13 14 14 12 7 5 4 4 3 1 0 0 0 0 0 0 0 0 0 0 0 0 1 0 0 0
25 26 27 26 26 25 23 21 20 18 16 13 10 8 8 10 13 15 15 15 14 11 7 6 5 3 1 0 0 0 0 0 0 0 0 0 0 0 0 0 0 0 0
25 28 30 31 32 30 27 24 21 19 17 15 11 8 8 10 13 16 16 16 15 13 9 7 6 4 2 1 0 0 0 0 0 0 0 0 0 0 0 0 0 0 0

GEFSSE_con_prob3kmehi_276.txt.gz
EHI
0 0 0 0 0 0 0 0 0 0 0 0 0 0 0 0 0 0 0 0 0 0 0 0 0 0 0 0 1 1 1 0 0 0 0 0 0 0 0 0 0 0 0
0 0 0 0 0 0 0 0 0 0 0 0 0 0 0 0 0 0 0 0 0 0 0 0 0 0 0 0 0 0 0 0 0 0 0 0 0 0 0 0 0 0 0
0 0 0 0 0 0 0 0 0 0 0 0 0 0 0 0 0 0 0 0 0 0 0 0 0 0 0 0 0 0 0 0 0 0 0 0 0 0 0 0 0 0 0
0 0 0 0 1 0 0 0 0 0 0 0 0 0 0 0 0 0 0 0 0 0 0 0 0 0 0 0 0 0 0 0 0 0 0 0 0 0 0 0 0 0 0
0 0 0 0 0 0 0 0 0 0 0 0 0 0 0 0 0 0 0 0 0 0 0 0 0 0 0 0 0 0 1 0 0 0 0 0 0 0 0 0 0 1 1
0 0 0 0 0 0 0 0 0 0 0 0 0 0 0 0 0 0 0 0 0 0 0 0 0 0 0 0 0 0 0 0 0 0 0 0 0 0 0 0 0 1 2
0 0 0 1 1 2 1 0 0 0 0 0 0 0 0 1 1 1 0 0 0 0 0 0 0 0 0 0 0 0 0 0 0 0 0 0 0 0 0 0 0 1 1
0 0 0 1 2 3 2 1 1 1 0 0 0 0 1 1 2 1 1 1 0 0 0 0 0 0 0 1 1 1 1 0 0 0 0 0 0 0 1 1 0 0 0
0 0 0 1 1 2 2 3 3 2 0 0 0 0 1 1 1 1 2 2 1 1 0 0 0 0 0 1 2 2 1 0 0 0 0 0 0 1 2 2 1 0 0
0 0 0 0 0 1 1 2 3 1 0 0 0 0 0 0 0 0 1 2 2 1 1 0 0 0 0 1 1 1 1 0 0 0 0 0 0 1 2 3 2 1 0
0 0 0 0 0 0 0 1 1 0 0 0 0 0 0 0 0 0 0 1 1 1 1 1 1 1 0 0 0 0 0 0 0 0 0 0 0 1 2 3 3 1 0
0 0 0 0 0 0 0 0 0 0 0 0 0 0 0 0 0 0 0 0 0 0 1 2 2 1 0 0 0 0 0 0 0 0 0 1 1 2 3 4 3 2 1
0 0 0 0 0 0 0 0 0 0 0 0 0 0 0 0 0 0 0 0 0 0 0 1 1 1 0 0 0 0 0 0 0 0 0 1 2 3 5 5 4 2 0
0 0 0 0 0 0 0 0 0 0 0 0 0 0 1 1 0 0 0 0 0 0 0 0 0 1 1 0 0 0 0 0 0 0 0 1 1 3 5 6 4 2 1
0 0 0 0 0 0 0 0 0 0 0 0 0 1 2 2 1 0 0 0 0 0 0 0 1 2 2 1 1 1 1 1 1 2 1 0 0 2 4 4 3 2 2
0 0 0 0 0 0 0 0 0 0 0 0 0 1 2 3 2 1 0 0 0 0 0 0 1 2 2 2 2 2 2 2 3 3 2 1 0 0 1 1 1 3 4
0 0 0 0 0 0 0 0 0 0 0 0 0 0 2 3 3 1 1 0 0 0 0 0 0 1 1 3 3 3 3 3 3 3 2 1 0 0 0 0 1 3 4
0 0 0 1 1 0 0 0 0 0 0 0 0 1 2 3 3 3 2 1 0 0 0 0 1 1 1 2 3 3 3 3 2 1 1 1 0 0 0 0 1 2 3
0 0 0 1 1 1 0 0 0 0 0 0 0 2 3 4 4 3 2 1 0 0 0 1 2 2 2 1 2 3 3 2 1 0 0 0 0 0 0 0 0 1 2
0 0 0 1 2 1 0 0 0 0 0 0 0 1 3 4 5 4 3 1 0 1 1 2 3 2 1 1 2 3 2 1 0 0 0 0 0 0 0 0 0 0 1
1 1 1 2 2 1 1 0 0 0 0 0 0 0 1 3 5 6 5 3 1 2 3 3 3 2 1 1 2 2 1 0 0 0 0 0 0 0 0 0 0 0 0
4 4 3 3 3 1 1 1 2 1 1 1 0 0 0 2 4 6 7 4 3 3 4 3 3 3 2 2 2 1 0 0 0 0 0 0 0 0 0 0 0 0 0
6 6 5 5 4 2 2 5 6 4 3 2 1 0 0 2 3 6 8 7 5 5 5 4 3 3 3 3 1 0 0 0 0 0 0 0 0 0 0 0 0 0 0
6 5 5 6 6 5 6 9 9 8 7 5 2 0 0 1 3 6 9 9 7 6 6 4 3 3 2 2 1 0 0 0 0 0 0 0 0 0 0 0 0 0 0
5 4 4 6 7 7 8 10 10 10 10 7 3 1 1 1 3 5 7 9 8 7 6 4 2 1 1 1 0 0 0 0 0 0 0 0 0 0 0 0 0 0 0
5 4 4 4 5 6 9 11 11 11 10 8 5 3 2 2 3 4 5 7 8 8 6 4 1 0 0 0 0 0 0 0 0 0 0 0 0 0 0 0 0 0 0

GEFSSE_con_prob3kmehi_282.txt.gz
EHI
1 1 1 0 0 0 0 0 0 0 0 0 0 0 0 0 0 1 1 1 0 0 0 0 0 0 0 0 0 0 0 0 0 0 0 0 0 1 1 1 0 0 0
0 0 0 0 0 0 0 1 1 0 0 0 0 0 0 0 0 0 0 0 0 0 0 0 0 0 0 0 0 0 0 0 0 0 0 0 0 0 0 0 0 0 0
0 0 0 0 0 0 1 2 2 1 0 0 0 0 0 0 0 0 0 0 0 0 0 0 0 0 0 0 0 0 0 0 0 0 0 0 0 0 0 0 0 0 0
0 0 0 0 0 0 1 2 2 1 0 0 0 1 1 1 1 0 0 0 0 0 0 0 0 0 0 0 0 0 0 0 0 0 0 0 0 0 0 0 0 0 0
0 0 0 0 0 0 1 1 1 0 0 1 1 2 2 2 1 0 0 0 0 0 0 0 0 0 0 0 0 0 0 0 0 0 0 0 0 0 0 0 0 0 0
0 0 0 0 0 0 0 0 1 1 1 2 3 3 3 2 1 0 0 0 0 0 0 0 0 0 0 0 0 0 0 0 0 0 0 0 1 1 1 0 0 0 0
0 0 1 1 1 1 0 0 1 2 3 3 3 3 3 2 0 0 0 0 0 0 0 0 0 0 0 0 0 0 0 0 0 0 0 0 1 1 1 0 0 0 0
0 0 1 2 2 2 2 1 2 3 3 3 3 3 3 2 1 0 0 0 0 0 0 0 0 0 0 0 0 0 0 0 0 0 0 0 0 0 0 0 0 0 0
0 0 0 1 2 2 3 2 2 3 3 2 3 3 3 3 3 2 1 1 1 0 0 0 0 0 0 0 0 1 1 0 0 0 0 0 0 0 0 0 0 0 0
1 1 1 1 1 1 1 1 2 3 2 2 2 3 3 4 4 4 3 2 2 1 1 0 0 0 0 1 1 1 1 0 0 0 0 0 0 0 0 0 0 0 0
2 2 2 1 0 0 0 0 1 2 2 2 3 4 4 4 4 4 3 3 3 2 2 1 0 0 1 2 2 2 1 1 0 0 1 2 1 0 0 0 0 0 0
1 1 2 1 0 0 0 0 1 2 3 3 3 4 4 3 3 3 3 3 3 3 2 2 1 1 1 2 3 2 1 1 1 1 2 3 2 1 0 0 0 0 1
0 1 2 2 2 1 0 0 2 4 3 2 3 4 4 3 3 3 3 3 3 3 3 4 3 2 3 3 2 2 2 1 2 1 1 3 4 3 2 1 1 1 2
0 1 2 3 3 2 1 1 3 4 3 2 3 3 3 3 3 3 3 3 3 3 3 4 3 3 3 3 2 2 1 2 2 2 1 2 4 4 3 2 2 2 2
0 1 3 3 3 3 2 1 2 2 1 1 1 2 3 3 3 3 3 3 3 3 3 3 4 4 3 3 3 3 2 3 3 3 2 3 3 4 3 3 2 2 3
1 2 3 3 3 3 2 1 1 1 0 0 0 1 3 3 3 3 4 3 3 3 3 4 5 5 4 3 3 3 3 4 3 3 3 3 3 3 3 2 1 1 2
2 3 3 3 3 3 2 2 2 2 0 0 0 1 2 3 3 4 4 4 3 3 4 5 7 6 5 4 3 3 4 4 4 3 3 3 3 3 3 3 1 1 2
3 3 3 3 3 3 2 2 2 1 1 1 0 1 3 4 4 5 5 4 3 3 4 6 7 6 4 3 3 3 3 4 3 3 3 3 2 1 2 3 2 0 1
3 3 4 3 3 4 3 2 1 1 2 2 1 2 4 6 6 7 7 5 4 4 5 6 6 5 4 4 3 3 3 3 3 3 2 2 1 1 1 3 2 0 0
2 3 4 5 6 6 5 1 0 1 2 3 2 4 5 6 6 7 8 7 5 5 6 6 5 4 4 4 4 3 3 3 3 2 1 0 0 0 1 2 1 0 0
1 3 5 7 9 9 6 3 1 1 1 3 4 6 6 5 6 7 8 8 7 6 6 6 5 4 4 4 3 3 3 3 2 1 0 0 0 0 0 1 1 0 0
2 4 7 10 11 10 7 4 3 2 1 2 5 6 6 5 6 7 9 9 8 7 7 7 7 6 4 3 3 3 3 1 1 0 0 0 0 0 0 0 0 0 0
4 5 7 10 11 11 9 6 5 5 4 5 6 5 5 5 6 8 9 9 9 8 8 9 9 8 7 5 4 4 2 1 0 0 0 0 0 0 0 0 0 0 0
6 5 6 8 10 12 12 11 10 9 8 8 8 7 5 5 5 8 9 10 9 9 9 10 11 10 9 8 6 4 2 1 0 0 0 0 0 0 0 0 0 0 1
8 7 7 9 11 13 14 15 16 14 12 12 12 11 8 6 6 7 9 10 10 10 10 11 12 12 11 9 7 5 3 2 1 1 1 1 1 0 0 0 0 0 1
9 8 8 10 12 13 14 17 19 17 15 14 15 14 11 9 7 8 10 11 11 11 11 12 13 13 12 9 6 6 4 3 4 3 1 1 1 1 0 0 0 0 1